This is the latest recevied weather packets stored in our database for station/object W5ITZ. If no packets are shown the sender has not sent any weather packets the latest 10 day(s).
| Time | Temp. | Humidity | Pressure | Rain* | Wind** | Luminosity | Snow |
|---|---|---|---|---|---|---|---|
| 1787867498 | 35.56° C | 51% | 1011.7 hPa | 0 mm | - | 521 W/m² | - |
| 1787867198 | 35.56° C | 51% | 1011.9 hPa | 0 mm | - | 529 W/m² | - |
| 1787866893 | 36.11° C | 50% | 1011.8 hPa | 0 mm | - | 536 W/m² | - |
| 1787866588 | 35.56° C | 50% | 1011.9 hPa | 0 mm | - | 549 W/m² | - |
| 1787866286 | 36.11° C | 49% | 1012 hPa | 0 mm | - | 564 W/m² | - |
| 1787865982 | 36.67° C | 47% | 1012.1 hPa | 0 mm | - | 582 W/m² | - |
| 1787865678 | 36.67° C | 48% | 1012.1 hPa | 0 mm | - | 601 W/m² | - |
| 1787865377 | 36.67° C | 47% | 1012.3 hPa | 0 mm | - | 626 W/m² | - |
| 1787865072 | 36.67° C | 48% | 1012.2 hPa | 0 mm | - | 644 W/m² | - |
| 1787864768 | 36.67° C | 47% | 1012.3 hPa | 0 mm | - | 649 W/m² | - |
| 1787864468 | 36.67° C | 46% | 1012.3 hPa | 0 mm | - | 675 W/m² | - |
| 1787864162 | 36.67° C | 46% | 1012.4 hPa | 0 mm | - | 705 W/m² | - |
| 1787863856 | 36.67° C | 46% | 1012.4 hPa | 0 mm | - | 714 W/m² | - |
| 1787863555 | 37.22° C | 46% | 1012.2 hPa | 0 mm | - | 731 W/m² | - |
| 1787863250 | 37.78° C | 42% | 1012.4 hPa | 0 mm | - | 731 W/m² | - |
| 1787862946 | 37.22° C | 43% | 1012.5 hPa | 0 mm | - | 763 W/m² | - |
| 1787862640 | 37.78° C | 42% | 1012.7 hPa | 0 mm | - | 771 W/m² | - |
| 1787862335 | 37.78° C | 39% | 1012.6 hPa | 0 mm | - | 782 W/m² | - |
| 1787862031 | 37.22° C | 37% | 1012.8 hPa | 0 mm | - | 800 W/m² | - |
| 1787861731 | 37.78° C | 37% | 1013 hPa | 0 mm | - | 811 W/m² | - |
| 1787861429 | 37.78° C | 37% | 1012.8 hPa | 0 mm | - | 816 W/m² | - |
| 1787861124 | 37.78° C | 39% | 1013.1 hPa | 0 mm | - | 824 W/m² | - |
| 1787860823 | 38.33° C | 39% | 1013.1 hPa | 0 mm | - | 827 W/m² | - |
| 1787860517 | 38.33° C | 38% | 1013.3 hPa | 0 mm | - | 841 W/m² | - |
| 1787860213 | 37.78° C | 39% | 1013.3 hPa | 0 mm | - | 852 W/m² | - |
* Rain latest hour (hover to see other rain measurements)
** Current wind speed in m/s (hover to see current wind gust speed)